Retour au catalogue

STARLINK-11667

ActifCommunicationsVLEO
NORAD 63550·PAYLOAD·🇺🇸 United States

Lancé Apr 13, 2025 depuis Cape Canaveral Space Force Station

Loading…

Prochains Passages (prochaines 24 heures)

TLE

FraisSource: CelesTrak SupGP

Époque: Sep 15, 2026, 03:09 UTC

1 63550C 25075C   26258.13173611  .00016288  00000+0  12642-3 0  2584
2 63550  43.0007  92.1442 0001774 267.7473 332.3317 15.70846049    19

Suivez STARLINK-11667 en temps réel avec AllMySat

Download on the App Store